Weather History for KSDL - August, 2013

Change the Weather History Date:

Saturday, August 17, 2013

  Actual Average Record
Temperature  
Mean Temperature 96 °F -  
Max Temperature 108 °F 99 °F 108 °F (2013)
Min Temperature 84 °F 79 °F 75 °F (1998)
Cooling Degree Days 31    
Growing Degree Days 46 (Base 50)    
Moisture  
Dew Point 58 °F    
Average Humidity 30    
Maximum Humidity 55    
Minimum Humidity 15    
Precipitation  
Precipitation 0.02 in - - ()
Sea Level Pressure  
Sea Level Pressure 29.81 in    
Wind  
Wind Speed 5 mph (East)    
Max Wind Speed 30 mph    
Max Gust Speed 41 mph    
Visibility 9 miles    
Events Rain , Thunderstorm    
Averages and records for this station are not official NWS values.
T = Trace of Precipitation, MM = Missing Value Source: NWS Daily Summary

Daily Weather History Graph

Daily Weather History Graph

Search for Another Location

Airport or City:

Trip Planner

Search our weather history database for the weather conditions in past years. The results will help you decide how hot, cold, wet, or windy it might be!

Date:

Astronomy

Aug. 17, 2013 Rise Set
Actual Time 5:51 AM MST 7:11 PM MST
Civil Twilight 5:25 AM MST 7:37 PM MST
Nautical Twilight 4:54 AM MST 8:08 PM MST
Astronomical Twilight 4:21 AM MST 8:40 PM MST
Moon 4:25 PM MST (8/17) 2:03 AM MST (8/17)
Length of Visible Light 14h 12m
Length of Day
13h 19m
Waxing Gibbous, 85% of the Moon is Illuminated
Aug 17
Waxing Gibbous
Aug 20
Full
Aug 28
Last Quarter
Sep 5
New
Sep 12
First Quarter

Hourly Weather History & Observations

Time (MST) Temp. Heat Index Dew Point Humidity Pressure Visibility Wind Dir Wind Speed Gust Speed Precip Events Conditions
12:53 AM 93.0 °F 92.0 °F 57.9 °F 31% 29.82 in 10.0 mi ENE 3.5 mph - N/A   Clear
1:53 AM 93.0 °F 92.0 °F 57.9 °F 31% 29.81 in 10.0 mi Calm Calm - N/A   Clear
2:53 AM 91.9 °F 91.2 °F 59.0 °F 33% 29.80 in 10.0 mi Calm Calm - N/A   Clear
3:53 AM 91.9 °F 90.8 °F 57.9 °F 32% 29.81 in 10.0 mi Calm Calm - N/A   Clear
4:53 AM 90.0 °F 89.7 °F 60.1 °F 37% 29.82 in 10.0 mi SSW 3.5 mph - N/A   Clear
5:53 AM 89.1 °F 88.2 °F 59.0 °F 36% 29.84 in 10.0 mi East 3.5 mph - N/A   Clear
6:53 AM 89.1 °F 88.8 °F 60.1 °F 38% 29.86 in 10.0 mi ESE 3.5 mph - N/A   Clear
7:53 AM 91.0 °F 90.5 °F 60.1 °F 35% 29.87 in 10.0 mi South 3.5 mph - N/A   Clear
8:53 AM 93.0 °F 92.3 °F 59.0 °F 32% 29.87 in 10.0 mi South 4.6 mph - N/A   Clear
9:53 AM 96.1 °F 95.6 °F 59.0 °F 29% 29.87 in 10.0 mi Calm Calm - N/A   Clear
10:53 AM 100.0 °F 99.2 °F 57.0 °F 24% 29.85 in 10.0 mi NW 4.6 mph - N/A   Clear
11:53 AM 102.0 °F 101.1 °F 57.0 °F 22% 29.81 in 10.0 mi NW 3.5 mph - N/A   Clear
12:53 PM 104.0 °F 103.4 °F 57.0 °F 21% 29.77 in 10.0 mi Variable 5.8 mph - N/A   Clear
1:53 PM 106.0 °F 105.1 °F 55.0 °F 19% 29.74 in 10.0 mi SSW 5.8 mph - N/A   Clear
2:53 PM 107.1 °F 105.4 °F 53.1 °F 17% 29.71 in 10.0 mi Calm Calm - N/A   Clear
3:53 PM 108.0 °F - 52.0 °F 16% 29.69 in 10.0 mi Variable 6.9 mph - N/A   Clear
4:53 PM 108.0 °F - 52.0 °F 16% 29.68 in 10.0 mi Calm Calm - N/A   Clear
5:53 PM 108.0 °F - 51.1 °F 15% 29.68 in 10.0 mi Calm Calm - N/A   Clear
6:45 PM 102.2 °F 100.9 °F 55.4 °F 21% 29.80 in 1.8 mi ENE 29.9 mph 41.4 mph N/A   Haze
6:53 PM 102.0 °F 100.6 °F 55.0 °F 21% 29.71 in 3.0 mi ENE 25.3 mph 39.1 mph N/A   Haze
7:53 PM 97.0 °F 95.0 °F 55.0 °F 24% 29.73 in 10.0 mi NNE 21.9 mph 36.8 mph N/A   Clear
8:53 PM 96.1 °F 93.8 °F 54.0 °F 24% 29.76 in 10.0 mi NNE 12.7 mph 25.3 mph N/A   Clear
9:53 PM 93.9 °F 91.7 °F 54.0 °F 26% 29.85 in 10.0 mi ENE 16.1 mph 24.2 mph N/A   Mostly Cloudy
10:43 PM 86.0 °F 87.3 °F 64.4 °F 48% 29.99 in 9.0 mi ENE 10.4 mph - 0.01 in Rain , Thunderstorm Thunderstorms and Rain
10:53 PM 86.0 °F 86.8 °F 63.0 °F 46% 29.91 in 9.0 mi ENE 16.1 mph 26.5 mph 0.02 in Rain , Thunderstorm Light Thunderstorms and Rain
11:03 PM 84.2 °F 85.6 °F 64.4 °F 51% 30.00 in 10.0 mi South 5.8 mph 19.6 mph 0.00 in Rain Light Rain
11:53 PM 84.0 °F 86.3 °F 66.0 °F 55% 29.92 in 10.0 mi South 3.5 mph - 0.00 in   Clear